Olney-Noble, IL

2:14 AM CDT on May 24, 2018 (GMT -0500)
Olney-Noble

Weather History for KOLY - February, 2014

Change the Weather History Date:

Thursday, February 6, 2014

  Actual Average (WUND) Record (WUND)
Temperature  
Mean Temperature 5 °F -  
Max Temperature 14 °F - - (-1)
Min Temperature -4 °F - - (-1)
Degree Days  
Heating Degree Days 60    
Moisture  
Dew Point -1 °F    
Average Humidity 70    
Maximum Humidity 92    
Minimum Humidity 52    
Precipitation  
Precipitation 0.00 in - - ()
Sea Level Pressure  
Sea Level Pressure 30.53 in    
Wind  
Wind Speed 9 mph (NW)    
Max Wind Speed 15 mph    
Max Gust Speed 18 mph    
Visibility 10 miles    
Events Snow    
Averages and records for this station are not official NWS values.
T = Trace of Precipitation, MM = Missing Value Source: NWS Daily Summary

Daily Weather History Graph

Daily Weather History Graph

Search for Another Location

Airport or City:

Astronomy

Feb. 06, 2014 Rise Set
Actual Time 6:53 AM CST 5:20 PM CST
Civil Twilight 6:26 AM CST 5:48 PM CST
Nautical Twilight 5:54 AM CST 6:19 PM CST
Astronomical Twilight 5:23 AM CST 6:50 PM CST
Moon 10:52 AM CST (2/6) 12:09 AM CST (2/6)
Length of Visible Light 11h 21m
Length of Day
10h 26m
Waxing Crescent, 49% of the Moon is Illuminated
Feb 6
Waxing Crescent
Feb 6
First Quarter
Feb 14
Full
Feb 22
Last Quarter
Mar 1
New

Hourly Weather History & Observations

Time (CST) Temp. Windchill Dew Point Humidity Pressure Visibility Wind Dir Wind Speed Gust Speed Precip Events Conditions
12:15 AM 14.0 °F -0.8 °F 10.4 °F 86% 30.52 in 10.0 mi NW 13.8 mph - N/A   Overcast
12:35 AM 14.0 °F -1.4 °F 8.6 °F 79% 30.51 in 10.0 mi WNW 15.0 mph 18.4 mph N/A   Overcast
12:55 AM 14.0 °F 0.5 °F 8.6 °F 79% 30.51 in 10.0 mi NW 11.5 mph - N/A Snow Light Snow
1:15 AM 12.2 °F -1.8 °F 8.6 °F 85% 30.52 in 10.0 mi NW 11.5 mph - N/A   Overcast
1:35 AM 12.2 °F -1.0 °F 8.6 °F 85% 30.50 in 10.0 mi NW 10.4 mph - N/A   Overcast
1:55 AM 12.2 °F -1.0 °F 6.8 °F 79% 30.50 in 10.0 mi NW 10.4 mph - N/A Snow Light Snow
2:15 AM 12.2 °F -1.8 °F 5.0 °F 73% 30.51 in 10.0 mi NW 11.5 mph - N/A Snow Light Snow
2:35 AM 12.2 °F -1.0 °F 5.0 °F 73% 30.51 in 10.0 mi NNW 10.4 mph - N/A Snow Light Snow
2:55 AM 10.4 °F -3.3 °F 5.0 °F 79% 30.50 in 10.0 mi NW 10.4 mph - N/A   Overcast
3:15 AM 10.4 °F -1.5 °F 5.0 °F 79% 30.50 in 10.0 mi NW 8.1 mph - N/A   Overcast
3:35 AM 10.4 °F -4.1 °F 5.0 °F 79% 30.51 in 10.0 mi WNW 11.5 mph - N/A   Overcast
3:55 AM 10.4 °F -4.1 °F 3.2 °F 73% 30.51 in 10.0 mi WNW 11.5 mph - N/A   Overcast
4:15 AM 10.4 °F -2.4 °F 3.2 °F 73% 30.51 in 10.0 mi NW 9.2 mph - N/A   Overcast
4:35 AM 8.6 °F -5.5 °F 3.2 °F 79% 30.51 in 10.0 mi NW 10.4 mph - N/A   Overcast
4:55 AM 8.6 °F -6.3 °F 3.2 °F 79% 30.52 in 10.0 mi WNW 11.5 mph - N/A Snow Light Snow
5:15 AM 8.6 °F -5.5 °F 3.2 °F 79% 30.53 in 10.0 mi NW 10.4 mph - N/A Snow Light Snow
5:35 AM 8.6 °F -3.7 °F 3.2 °F 79% 30.53 in 10.0 mi NW 8.1 mph - N/A Snow Light Snow
5:55 AM 8.6 °F -4.7 °F 3.2 °F 79% 30.53 in 10.0 mi NW 9.2 mph - N/A Snow Light Snow
6:15 AM 8.6 °F -4.7 °F 3.2 °F 79% 30.53 in 10.0 mi WNW 9.2 mph - N/A Snow Light Snow
6:35 AM 8.6 °F -3.7 °F 3.2 °F 79% 30.55 in 10.0 mi WNW 8.1 mph - N/A   Overcast
6:55 AM 8.6 °F -4.7 °F 1.4 °F 73% 30.55 in 10.0 mi WNW 9.2 mph - N/A   Overcast
7:15 AM 8.6 °F -3.7 °F 3.2 °F 79% 30.55 in 10.0 mi NW 8.1 mph - N/A   Overcast
7:35 AM 8.6 °F -5.5 °F 3.2 °F 79% 30.56 in 10.0 mi WNW 10.4 mph - N/A Snow Light Snow
7:55 AM 8.6 °F -2.6 °F 3.2 °F 79% 30.56 in 10.0 mi WNW 6.9 mph - N/A Snow Light Snow
8:15 AM 8.6 °F -5.5 °F 1.4 °F 73% 30.57 in 7.0 mi WNW 10.4 mph - N/A Snow Light Snow
8:35 AM 8.6 °F -5.5 °F 1.4 °F 73% 30.58 in 10.0 mi WNW 10.4 mph - N/A Snow Light Snow
8:55 AM 8.6 °F -5.5 °F 1.4 °F 73% 30.58 in 7.0 mi WNW 10.4 mph - N/A Snow Light Snow
9:15 AM 8.6 °F -4.7 °F 1.4 °F 73% 30.58 in 7.0 mi NW 9.2 mph - N/A Snow Light Snow
9:35 AM 8.6 °F -4.7 °F 1.4 °F 73% 30.59 in 10.0 mi NW 9.2 mph - N/A Snow Light Snow
9:55 AM 8.6 °F -4.7 °F 1.4 °F 73% 30.59 in 10.0 mi West 9.2 mph - N/A   Overcast
10:15 AM 8.6 °F -4.7 °F -0.4 °F 67% 30.59 in 10.0 mi West 9.2 mph - N/A   Overcast
10:35 AM 8.6 °F -5.5 °F -0.4 °F 67% 30.59 in 10.0 mi WNW 10.4 mph - N/A   Mostly Cloudy
10:55 AM 8.6 °F -2.6 °F -2.2 °F 62% 30.59 in 10.0 mi West 6.9 mph - N/A   Scattered Clouds
11:15 AM 8.6 °F -3.7 °F -2.2 °F 62% 30.58 in 10.0 mi West 8.1 mph - N/A   Clear
11:35 AM 8.6 °F -4.7 °F -2.2 °F 62% 30.58 in 10.0 mi WNW 9.2 mph - N/A   Clear
11:55 AM 10.4 °F -1.5 °F -0.4 °F 62% 30.56 in 10.0 mi West 8.1 mph - N/A   Clear
12:15 PM 10.4 °F -3.3 °F -0.4 °F 62% 30.56 in 10.0 mi West 10.4 mph - N/A   Clear
12:35 PM 10.4 °F -3.3 °F -2.2 °F 57% 30.55 in 10.0 mi WNW 10.4 mph - N/A   Clear
12:55 PM 10.4 °F -4.8 °F -2.2 °F 57% 30.54 in 10.0 mi NW 12.7 mph - N/A   Scattered Clouds
1:15 PM 10.4 °F -5.4 °F -4.0 °F 52% 30.53 in 10.0 mi NW 13.8 mph - N/A   Clear
1:35 PM 10.4 °F -2.4 °F -4.0 °F 52% 30.52 in 10.0 mi WNW 9.2 mph - N/A   Clear
1:55 PM 10.4 °F -0.4 °F -2.2 °F 57% 30.52 in 10.0 mi NW 6.9 mph - N/A   Clear
2:15 PM 10.4 °F -3.3 °F -2.2 °F 57% 30.52 in 10.0 mi NW 10.4 mph - N/A   Clear
2:35 PM 10.4 °F -1.5 °F -4.0 °F 52% 30.51 in 10.0 mi NW 8.1 mph - N/A   Clear
2:55 PM 10.4 °F -2.4 °F -4.0 °F 52% 30.51 in 10.0 mi WNW 9.2 mph - N/A   Clear
3:15 PM 10.4 °F -0.4 °F -4.0 °F 52% 30.51 in 10.0 mi NW 6.9 mph - N/A   Scattered Clouds
3:35 PM 10.4 °F 2.2 °F -4.0 °F 52% 30.51 in 10.0 mi NW 4.6 mph - N/A   Mostly Cloudy
3:55 PM 10.4 °F -1.5 °F -4.0 °F 52% 30.52 in 10.0 mi NNW 8.1 mph - N/A   Mostly Cloudy
4:15 PM 8.6 °F -2.6 °F -4.0 °F 57% 30.52 in 10.0 mi NNW 6.9 mph - N/A   Scattered Clouds
4:35 PM 8.6 °F 0.1 °F -4.0 °F 57% 30.52 in 10.0 mi NW 4.6 mph - N/A   Scattered Clouds
4:55 PM 8.6 °F 0.1 °F -4.0 °F 57% 30.52 in 10.0 mi NW 4.6 mph - N/A   Overcast
5:15 PM 8.6 °F 0.1 °F -4.0 °F 57% 30.52 in 10.0 mi NW 4.6 mph - N/A   Overcast
5:35 PM 5.0 °F - -4.0 °F 66% 30.53 in 10.0 mi Calm Calm - N/A   Mostly Cloudy
5:55 PM 6.8 °F - -4.0 °F 61% 30.52 in 10.0 mi Calm Calm - N/A   Scattered Clouds
6:15 PM 5.0 °F - -4.0 °F 66% 30.52 in 10.0 mi Calm Calm - N/A   Scattered Clouds
6:35 PM 5.0 °F - -4.0 °F 66% 30.53 in 10.0 mi Calm Calm - N/A   Mostly Cloudy
6:55 PM 5.0 °F - -4.0 °F 66% 30.52 in 10.0 mi Calm Calm - N/A   Overcast
7:15 PM 5.0 °F - -4.0 °F 66% 30.53 in 10.0 mi Calm Calm - N/A   Mostly Cloudy
7:35 PM 5.0 °F - -2.2 °F 72% 30.53 in 10.0 mi Calm Calm - N/A   Scattered Clouds
7:55 PM 5.0 °F - -4.0 °F 66% 30.52 in 10.0 mi Calm Calm - N/A   Mostly Cloudy
8:15 PM 5.0 °F - -4.0 °F 66% 30.52 in 10.0 mi Calm Calm - N/A   Mostly Cloudy
8:35 PM 3.2 °F - -5.8 °F 66% 30.51 in 10.0 mi Calm Calm - N/A   Clear
8:55 PM 1.4 °F - -5.8 °F 72% 30.51 in 10.0 mi Calm Calm - N/A   Clear
9:15 PM 1.4 °F - -5.8 °F 72% 30.51 in 10.0 mi Calm Calm - N/A   Clear
9:35 PM 1.4 °F - -5.8 °F 72% 30.51 in 10.0 mi Calm Calm - N/A   Clear
9:55 PM 1.4 °F - -5.8 °F 72% 30.51 in 10.0 mi Calm Calm - N/A   Clear
10:15 PM -0.4 °F - -5.8 °F 78% 30.52 in 10.0 mi Calm Calm - N/A   Clear
10:35 PM -2.2 °F - -7.6 °F 78% 30.52 in 10.0 mi Calm Calm - N/A   Clear
10:55 PM -2.2 °F - -5.8 °F 85% 30.51 in 10.0 mi Calm Calm - N/A   Clear
11:15 PM -4.0 °F - -7.6 °F 85% 30.50 in 10.0 mi Calm Calm - N/A   Clear
11:35 PM -4.0 °F - -5.8 °F 92% 30.50 in 10.0 mi Calm Calm - N/A   Clear
11:55 PM -4.0 °F - -7.6 °F 85% 30.50 in 10.0 mi Calm Calm - N/A   Clear